Regional Weather Roundup
Issued by NWS

Home | Current Version | Previous Version | Text Only | Print | Product List | Glossary On
Versions: 1 2 3 4 5 6 7 8 9 10 11 12 13 14 15 16 17 18 19 20 21 22 23 24 25 26 27 28 29 30 31 32 33 34 35 36 37 38 39 40 41 42 43 44 45 46 47 48 49 50
000
ASUS44 KEWX 092311
RWRTX
SOUTH TEXAS REGIONAL WEATHER ROUNDUP
NATIONAL WEATHER SERVICE AUSTIN/SAN ANTONIO TX
500 PM CST TUE FEB 09 2016

NOTE: "FAIR" INDICATED FEW OR NO CLOUDS BELOW 12,000 FEET WITH NO
SIGNIFICANT WEATHER AND/OR OBSTRUCTIONS TO VISIBILITY.

* - THESE STATIONS ARE NOT NWS OR FAA STATIONS...AND ARE NOT SUBJECT
    TO NWS AND FAA QUALITY CONTROL.

TXZ171-172-183>190-100000-
TEXAS HILL COUNTRY AND EDWARDS PLATEAU

CITY           SKY/WX    TMP DP  RH WIND       PRES   REMARKS
JUNCTION       SUNNY     70  23  17 N9        30.27R
*LLANO         SUNNY     72  28  20 NW10G16   30.27S
BURNET         SUNNY     69  27  20 W10G20    30.26R
*HORSESHOE BAY SUNNY     71  29  21 NW10      30.25R
*KERRVILLE     SUNNY     69  24  18 NW3       30.26S
*FREDERICKSBRG SUNNY     67  24  19 N10       30.26R
*ROCKSPRINGS   SUNNY     66  28  24 CALM      30.29F
*BOERNE STAGE  SUNNY     68  27  21 N7        30.26S
*CASTROVILLE   SUNNY     74  24  15 CALM      30.25F
HONDO          SUNNY     74  24  15 NW8       30.26F
*UVALDE        SUNNY     72  27  18 W3        30.26S
DEL RIO        SUNNY     72  21  14 S5        30.25S
LAUGHLIN AFB   SUNNY     71  23  16 VRB1      30.25S
CARRIZO SPRGS  SUNNY     72  25  17 CALM      30.25S
*EAGLE PASS    CLEAR     73  21  14 CALM      30.26S
$$

TXZ173-191>194-202-209-217>225-228-100000-
CENTRAL AND SOUTH CENTRAL TEXAS

CITY           SKY/WX    TMP DP  RH WIND       PRES   REMARKS
GEORGETOWN     SUNNY     72  30  21 N14       30.22F
AUSTIN/BERGSTM SUNNY     72  28  19 NW12      30.22S
AUSTIN/MABRY   SUNNY     71  28  20 NW10G16   30.23S
*AUSTIN/EXEC   SUNNY     70  28  21 NW14G21   30.23S
*LAGO VISTA    SUNNY     70  27  20 NW12G18   30.24S
SAN MARCOS     SUNNY     72  28  20 NW12G20   30.25S
NEW BRAUNFELS  SUNNY     73  26  17 NW10      30.23R
RANDOLPH AFB   SUNNY     72  28  19 NW8       30.24S
PT SAN ANTONIO SUNNY     72  29  20 W8        30.22F
SAN ANTONIO    SUNNY     72  28  19 NW8       30.24F
STINSON FIELD  SUNNY     74  25  16 NW8       30.22F
*PLEASANTON    SUNNY     73  27  18 NW9       30.25F
*LA GRANGE     SUNNY     70  32  25 W7        30.22S
*GIDDINGS      SUNNY     69  29  22 NW12G18   30.26R
*GONZALES      SUNNY     72  32  23 NW3       30.23S
$$

TXZ163>164-176>182-195>201-210>213-226-227-235-100000-
SOUTHEAST TEXAS

CITY           SKY/WX    TMP DP  RH WIND       PRES   REMARKS
COLLEGE STN    SUNNY     67  26  21 NW9       30.21F
*BRYAN         SUNNY     66  29  24 NW6       30.23S
*CALDWELL      SUNNY     66  27  22 W9        30.24F
*CROCKETT      SUNNY     61  25  25 NW9       30.24S
*BRENHAM       SUNNY     68  29  22 NW8       30.23S
HUNTSVILLE     SUNNY     64  26  23 NW12      30.21R
CONROE         SUNNY     64  24  21 NW13      30.21S
HOUSTON BUSH   SUNNY     65  24  21 W9        30.21F
HOUSTON HOBBY  SUNNY     65  21  18 NW15      30.21F
*HOUSTON SW AP SUNNY     64  27  24 NW10G18   30.24S
PEARLAND       SUNNY     66  21  18 NW13      30.23S
HOUSTON HOOKS  SUNNY     65  24  21 NW13      30.22S
ELLINGTON FLD  SUNNY     64  18  16 NW15      30.22S
SUGAR LAND     SUNNY     65  28  24 NW12      30.23S
*HOUSTON EXEC  SUNNY     64  28  25 NW8       30.24S
*CLEVELAND MUN SUNNY     64  31  28 NW10      30.21S
*WHARTON       SUNNY     68  29  23 NW10      30.24S
*COLUMBUS      FAIR      67  29  24 NW9G16    30.23S
*EAGLE LAKE    CLEAR     67  29  24 NW12      30.23S
$$

TXZ214>216-236>238-100000-
THE UPPER TEXAS COAST

CITY           SKY/WX    TMP DP  RH WIND       PRES   REMARKS
*ORANGE        SUNNY     62  20  19 NW6       30.19R
PORT ARTHUR    SUNNY     63  27  25 W12G21    30.18S
GALVESTON      SUNNY     63  37  38 W14       30.22F
ANGLETON       SUNNY     67  27  22 N13       30.23S
*BAY CITY      SUNNY     67  29  24 NW9       30.24S
PALACIOS       SUNNY     68  29  23 NW15G22   30.24F
$$

TXZ229>234-239>247-100000-
TEXAS COASTAL BEND AND RIO GRANDE PLAINS

CITY           SKY/WX    TMP DP  RH WIND       PRES   REMARKS
VICTORIA       SUNNY     70  29  21 NW13      30.24F
*BEEVILLE      SUNNY     73  31  21 NW10      30.26S
ROCKPORT       SUNNY     67  41  38 S7        30.26R
*PORT ARANSAS  SUNNY     63  44  50 S6        30.26S
*PORT LAVACA   SUNNY     70  32  24 N12       30.24S
*INGLESIDE     SUNNY     69  33  25 SE6       30.25S
CORPUS CHRISTI MOSUNNY   73  24  16 NW5       30.25S
CORPUS NAS     MOSUNNY   64  43  46 S10       30.27R
*ROBSTOWN      SUNNY     73  28  19 N8        30.27R
ALICE            N/A     74  26  16 CALM      30.25S
KINGSVILLE NAS MOSUNNY   73  30  20 NW9       30.25F
COTULLA        SUNNY     75  25  15 NW7       30.25F
*FAITH RANCH   SUNNY     73  19  13 CALM      30.26S
LAREDO         SUNNY     73  23  15 SW5       30.26F
$$

TXZ248>255-100000-
DEEP SOUTH TEXAS

CITY           SKY/WX    TMP DP  RH WIND       PRES   REMARKS
BROWNSVILLE    SUNNY     67  31  26 E12       30.30R
PORT ISABEL    SUNNY     65  42  43 E12       30.29S
*SOUTH PADRE     N/A     63  46  55 NE8       30.30R
HARLINGEN      SUNNY     70  34  26 E14       30.27R
*HEBBRONVILLE  NOT AVBL
MCALLEN        SUNNY     78  22  12 N3        30.27S
*WESLACO       SUNNY     75  24  15 CALM      30.27R
FALFURRIAS     SUNNY     74  17  11 CALM      30.25S
EDINBURG       SUNNY     78  16   9 N5        30.27R
*ZAPATA        SUNNY     74  21  13 CALM      30.25S
$$

TXZ213>215-236>238-242>244-246-247-251-254-255-100000-
CMAN STATIONS

STATION/POSITION TIME  TEMP    WIND        PRES    WAVE
                       AIR SEA DIR/SP/G            HT/PER
                 (UTC) (F)     (DEG/KT/KT) (MB)    (FT/S)
SABINE PASS      2200   61 54  300/ 12/ 18 1023.5
SEA RIM ST PARK  2300   61     310/ 12/ 16 1023.0
NORTH JETTY/GLS  2200   63 55   20/ 11/ 15   N/A
EAGLE POINT      2200   64 52  340/  9/ 17 1023.1
MORGANS POINT    2200   63 52  300/  9/ 15 1023.0
MISSION/ARANSAS  2200   64                 1025.0
PORT O`CONNOR    2200          310/  6/  7   N/A
PORT ARANSAS     2300   60 60  140/  9/  9 1025.7
MALAQUITE BEACH  2200   59 60  140/  9/  9 1024.8
BAFFIN BAY       2200   62 62  120/  9/ 10 1025.1
PORT ISABEL      2200   62 61   60/ 11/ 13 1025.5
$$

GMZ080-GMZ150>470-100000-
OFFSHORE BUOY REPORTS

STATION/POSITION TIME  TEMP    WIND        PRES    WAVE
                       AIR SEA DIR/SP/G            HT/PER
                 (UTC) (F)     (DEG/KT/KT) (MB)    (FT/S)
20 E GALVESTON   2250   59 58  290/  6/  8 1023.3    1/ 3
90 E PT ARANSAS  2250   62 67  330/ 10/ 12 1024.8    2/ 4
35 NE PT MANSFLD 2250   63 70   80/  2/  4 1025.3    2/ 4
200 E PT ISABEL  2250                        N/A     8/ 8
$$



USA.gov is the U.S. government's official web portal to all federal, state and local government web resources and services.